Other Public Products
Issued by NWS Grand Forks, ND

Home | Current Version | Previous Version | Graphics & Text | Print | Product List | Glossary On
Versions: 1 2 3 4 5 6 7 8 9 10 11 12 13 14 15 16 17 18 19 20 21 22 23 24 25 26 27 28 29 30 31 32 33 34 35 36 37 38 39 40 41 42 43 44 45 46 47 48 49 50
000
FPUS83 KFGF 011831
OPUFGF
PRAIRIE TO PINES WEATHER ROUNDUP
NATIONAL WEATHER SERVICE EASTERN NORTH DAKOTA/GRAND FORKS ND
100 PM CDT SUN MAY 01 2016

 **SATELLITE DATA USED TO AUGMENT SKY COVER AT AUTOMATED STATIONS**
 *****  WEATHER ACROSS EASTERN NORTH DAKOTA  *****

CITY           SKY/WX    TMP DP  RH WIND       PRES   REMARKS
GRAND FORKS    SUNNY     62  30  29 E7        30.25F
6HR MIN TEMP:  32; 6HR MAX TEMP:  62;

GRAND FORKS AF SUNNY     59  27  29 NE9       30.25F
GRAND CITY NWS NOT AVBL
BUXTON           N/A     63  32  31 NE2         N/A
DEVILS LAKE    SUNNY     58  29  33 SW13      30.27F
6HR MIN TEMP:  31; 6HR MAX TEMP:  59;

FARGO          SUNNY     61  29  29 NW10      30.23F
6HR MIN TEMP:  33; 6HR MAX TEMP:  61;

WAHPETON ARPT  CLEAR     59  28  31 N14G21    30.22F
$$

 *****  WEATHER ACROSS CENTRAL AND WESTERN NORTH DAKOTA  *****

CITY           SKY/WX    TMP DP  RH WIND       PRES   REMARKS
JAMESTOWN      SUNNY     59  29  31 N9        30.25F
6HR MIN TEMP:  32; 6HR MAX TEMP:  59;

BISMARCK       SUNNY     59  27  29 N8        30.28F
6HR MIN TEMP:  34; 6HR MAX TEMP:  60;

MINOT          SUNNY     64  26  23 W8        30.28F
6HR MIN TEMP:  35; 6HR MAX TEMP:  64;

MINOT AFB      SUNNY     58  27  29 VRB5      30.27F
6HR MIN TEMP:  30; 6HR MAX TEMP:  59;

GARRISON         N/A     58  26  29 VRB3      30.28F
6HR MIN TEMP:  32; 6HR MAX TEMP:  59;

WILLISTON      SUNNY     62  27  26 VRB3      30.29F
6HR MIN TEMP:  33; 6HR MAX TEMP:  62;

DICKINSON      SUNNY     58  28  32 VRB6      30.27F
6HR MIN TEMP:  28; 6HR MAX TEMP:  58;

HETTINGER      SUNNY     58  28  32 NE8       30.30F
6HR MIN TEMP:  27; 6HR MAX TEMP:  58;

$$

 *****  OTHER OBSERVATIONS NORTHEAST NORTH DAKOTA  *****

CITY           SKY/WX    TMP DP  RH WIND       PRES   REMARKS
WALHALLA       FAIR      59  30  33 NE3       30.26F
LANGDON        FAIR      64  27  24 VRB3      30.25F
CAVALIER       FAIR      61  28  29 N3        30.25F
GRAFTON        FAIR      61  28  29 CALM      30.26F
CANDO          FAIR      63  25  23 N3        30.28F
FORT TOTTEN      N/A     60  28  29 NW5       29.95
ROLLA          FAIR      59  23  25 W5        30.27F
RUGBY          FAIR      59  27  29 W3        30.26F
 ***** THE ABOVE OBSERVATIONS ARE NON NWS ARE NOT QUALITY
        CONTROLLED AND MAY MIS-REPORT RAIN FOR SNOW...
$$

 *****  OTHER OBSERVATIONS SOUTHEAST NORTH DAKOTA *****

CITY           SKY/WX    TMP DP  RH WIND       PRES   REMARKS
COOPERSTOWN    NOT AVBL
VALLEY CITY    FAIR      57  28  33 NE9G16    30.26F
OAKES            N/A    N/A N/A N/A MISG        N/A
GWINNER        FAIR      59  32  36 N7        30.24F
SHEYENNE NWR     N/A     58  30  34 NE7       29.95S
BUFFALO          N/A     60  26  27 N8          N/A
WYNDMERE         N/A     59  32  36 NE12        N/A
 ***** THE ABOVE OBSERVATIONS ARE NON NWS ARE NOT QUALITY
       CONTROLLED AND MAY MIS-REPORT RAIN FOR SNOW...
$$

  *****  WEATHER ACROSS NORTHERN MINNESOTA  *****

CITY           SKY/WX    TMP DP  RH WIND       PRES   REMARKS
FLAG ISLAND    SUNNY     46  37  71 S7        30.24F
WARROAD        SUNNY     54  34  47 E8        30.26F
ROSEAU         SUNNY     59  32  36 E9G16     30.24F
HALLOCK        SUNNY     63  19  19 E5G17     30.24F
THF RVR FALLS  SUNNY     57  27  30 NE10      30.25F
6HR MIN TEMP:  36; 6HR MAX TEMP:  57;

HALSTAD        NOT AVBL
FOSSTON        SUNNY     61  28  29 N8        30.23F
BAUDETTE       SUNNY     58  28  32 NW5       30.24F
6HR MIN TEMP:  34; 6HR MAX TEMP:  59;

WASKISH        SUNNY     57  30  35 E7        30.22F
CROOKSTON      SUNNY     61  28  29 N6        30.24F
$$
  *****  WEATHER ACROSS CENTRAL AND WEST MINNESOTA  *****

CITY           SKY/WX    TMP DP  RH WIND       PRES   REMARKS
BEMIDJI        SUNNY     57  31  36 N8        30.21F
PARK RAPIDS    SUNNY     57  28  33 VRB6      30.20F
6HR MIN TEMP:  37; 6HR MAX TEMP:  57;

WADENA         SUNNY     57  30  35 NE16G22   30.19F
DETROIT LAKES  SUNNY     55  30  38 NE6       30.22F
MOORHEAD       SUNNY     57  28  33 CALM      30.23F
FERGUS FALLS   SUNNY     55  30  38 N3G20     30.20F
ELBOW LAKE     FAIR      54  32  42 NE14      30.21F
MORRIS MN      SUNNY     57  32  38 E12G18    30.19F
STAPLES        SUNNY     55  27  33 E9G17     30.19F
WHEATON        SUNNY     61  34  36 N16G23    30.23F
$$
  *****  WEATHER ELSEWHERE ACROSS MINNESOTA  *****

CITY           SKY/WX    TMP DP  RH WIND       PRES   REMARKS
DULUTH         MOSUNNY   48  36  63 SE13      30.21F
6HR MIN TEMP:  35; 6HR MAX TEMP:  50;

INTRNTL FALLS  SUNNY     53  30  41 N8        30.24F
6HR MIN TEMP:  33; 6HR MAX TEMP:  54;

ELY            SUNNY     54  30  40 N7        30.20F
CLOQUET        SUNNY     50  36  57 SE6       30.20F
BRAINERD       SUNNY     55  28  35 VRB5G21   30.20F
6HR MIN TEMP:  35; 6HR MAX TEMP:  57;

HIBBING        SUNNY     53  30  41 MISG      30.20F
6HR MIN TEMP:  29; 6HR MAX TEMP:  54;

ALEXANDRIA     SUNNY     56  31  38 NE12      30.20F
6HR MIN TEMP:  37; 6HR MAX TEMP:  56;

SAINT CLOUD    SUNNY     56  33  42 NE13G21   30.17F
6HR MIN TEMP:  37; 6HR MAX TEMP:  56;

MINNEAPOLIS    PTSUNNY   57  37  47 N10       30.13F
6HR MIN TEMP:  42; 6HR MAX TEMP:  58;

$$

  *****  WEATHER ACROSS SOUTH DAKOTA  *****

CITY           SKY/WX    TMP DP  RH WIND       PRES   REMARKS
SIOUX FALLS    PTSUNNY   52  41  66 N14       30.17F
6HR MIN TEMP:  40; 6HR MAX TEMP:  53; 6HR PCP:  0.01;

BROOKINGS      MOSUNNY   52  33  48 NE14G21   30.18F
WATERTOWN      SUNNY     55  32  41 E14G23    30.20F
6HR MIN TEMP:  35; 6HR MAX TEMP:  55;

HURON          SUNNY     56  33  42 NE16      30.22F
6HR MIN TEMP:  34; 6HR MAX TEMP:  56;

SISSETON         N/A     58  30  34 NE16G24   30.22F
ABERDEEN       SUNNY     58  32  37 N14G20    30.26F
6HR MIN TEMP:  33; 6HR MAX TEMP:  59;

MITCHELL       MOSUNNY   54  38  54 N17G23    30.22F
PIERRE         PTSUNNY   56  34  43 N8        30.26F
6HR MIN TEMP:  31; 6HR MAX TEMP:  56;

MOBRIDGE       SUNNY     58  34  40 N10G16    30.26F
RAPID CITY     MOSUNNY   54  31  41 N14G22    30.31F
6HR MIN TEMP:  37; 6HR MAX TEMP:  54;

$$

  *****  SOME WEATHER IN NEARBY STATES *****

CITY           SKY/WX    TMP DP  RH WIND       PRES   REMARKS
GLASGOW MT     SUNNY     61  31  32 VRB7      30.30F
6HR MIN TEMP:  34; 6HR MAX TEMP:  62;

GREAT FALLS MT SUNNY     54  30  40 CALM      30.30F
6HR MIN TEMP:  30; 6HR MAX TEMP:  56;

CHEYENNE WY    MOSUNNY   36  24  62 NE15      30.30F
6HR MIN TEMP:  30; 6HR MAX TEMP:  36;

SCOTTSBLUFF NE MOSUNNY   50  27  40 NE8       30.32F
6HR MIN TEMP:  37; 6HR MAX TEMP:  50;

OMAHA NE       LGT RAIN  47  44  90 N15       30.10S FOG
6HR MIN TEMP:  45; 6HR MAX TEMP:  48; 6HR PCP:  0.06;

DES MOINES IA  LGT RAIN  48  44  86 N8        30.04F FOG
6HR MIN TEMP:  46; 6HR MAX TEMP:  47; 6HR PCP:  0.03;

DAVENPORT IA   CLOUDY    49  45  86 NE13      29.99F
6HR MIN TEMP:  46; 6HR MAX TEMP:  49;

CHICAGO IL     CLOUDY    47  44  90 NE14      29.99F
6HR MIN TEMP:  42; 6HR MAX TEMP:  47;

EAU CLAIRE WI  SUNNY     60  33  36 E9        30.09F
6HR MIN TEMP:  42; 6HR MAX TEMP:  60;

LA CROSSE WI   CLOUDY    55  38  52 E9        30.07F
6HR MIN TEMP:  47; 6HR MAX TEMP:  56;

$$

  *****  SOME NATIONAL WEATHER *****

CITY           SKY/WX    TMP DP  RH WIND       PRES   REMARKS
LA GUARDIA NY  LGT RAIN  48  45  87 SE9       30.16F
6HR MIN TEMP:  48; 6HR MAX TEMP:  50; 6HR PCP:  0.11;              C1F1C2F2C3F3C4F4C5F5C6F6C7F7C8F8C9F9CaFaCbFbCcFcCdFdCe!



USA.gov is the U.S. government's official web portal to all federal, state and local government web resources and services.